WA7BMK Weather Reports


Display with metric or nautical units.
time (UTC)temp
F
wind
direction
speed
MPH
gust
MPH
rain 1hr
in
rain 24hr
in
rain mn
in
humidity
%
barometer
mb
20260831231542 77 0 1.0 4.0 0.00 0.00 0.00 46 1009.6
20260831230036 76 315 1.0 9.0 0.00 0.00 0.00 49 1009.6
20260831224543 75 290 2.0 9.0 0.00 0.00 0.00 50 1009.9
20260831223041 74 258 1.0 7.0 0.00 0.00 0.00 53 1010.0
20260831221541 75 323 2.0 9.0 0.00 0.00 0.00 53 1010.2
20260831220039 74 0 2.0 9.0 0.00 0.00 0.00 55 1010.4
20260831214540 74 240 1.0 8.0 0.00 0.00 0.00 56 1010.5
20260831213042 73 265 1.0 8.0 0.00 0.00 0.00 58 1010.6
20260831211539 73 311 2.0 8.0 0.00 0.00 0.00 57 1010.8
20260831210046 72 341 2.0 6.0 0.00 0.00 0.00 59 1011.1
20260831204542 72 262 2.0 9.0 0.00 0.00 0.00 59 1011.2
20260831203042 71 346 2.0 10.0 0.00 0.00 0.00 61 1011.3
20260831201546 71 278 1.0 6.0 0.00 0.00 0.00 61 1011.4
20260831200043 71 258 2.0 7.0 0.00 0.00 0.00 60 1011.5
20260831194613 70 195 1.0 5.0 0.00 0.00 0.00 61 1011.7
20260831193046 71 125 1.0 4.0 0.00 0.00 0.00 61 1011.9
20260831191541 70 261 2.0 8.0 0.00 0.00 0.00 61 1012.1
20260831190044 71 0 1.0 4.0 0.00 0.00 0.00 62 1012.4
20260831184608 69 59 1.0 6.0 0.00 0.00 0.00 64 1012.5
20260831183056 68 344 1.0 9.0 0.00 0.00 0.00 67 1012.7
20260831181542 68 331 1.0 7.0 0.00 0.00 0.00 67 1012.9
20260831180043 66 360 1.0 6.0 0.00 0.00 0.00 70 1013.0
20260831174543 66 266 1.0 5.0 0.00 0.00 0.00 71 1013.1
20260831173056 66 284 1.0 5.0 0.00 0.00 0.00 70 1013.2
20260831171539 64 99 1.0 7.0 0.00 0.00 0.00 75 1013.3
20260831170049 63 345 1.0 5.0 0.00 0.00 0.00 77 1013.3
20260831164541 63 5 1.0 5.0 0.00 0.00 0.00 77 1013.4
20260831163044 62 91 1.0 5.0 0.00 0.00 0.00 79 1013.7
20260831161545 60 276 0.0 5.0 0.00 0.00 0.00 82 1013.8
20260831160050 60 0 1.0 4.0 0.00 0.00 0.00 82 1014.0
20260831154604 58 0 0.0 4.0 0.00 0.00 0.00 85 1014.1
20260831153044 58 309 0.0 2.0 0.00 0.00 0.00 88 1014.1
20260831151556 56 0 0.0 3.0 0.00 0.00 0.00 91 1014.3
20260831150045 54 0 0.0 2.0 0.00 0.00 0.00 93 1014.3
20260831144554 52 0 0.0 0.0 0.00 0.00 0.00 92 1014.3
20260831143044 51 0 0.0 0.0 0.00 0.00 0.00 92 1014.1
20260831141550 51 0 0.0 0.0 0.00 0.00 0.00 91 1014.2
20260831140039 51 0 0.0 0.0 0.00 0.00 0.00 91 1014.3
20260831134541 51 0 0.0 0.0 0.00 0.00 0.00 91 1014.1
20260831133043 51 0 0.0 0.0 0.00 0.00 0.00 91 1014.1
20260831131542 51 0 0.0 0.0 0.00 0.00 0.00 90 1014.3
20260831130048 52 0 0.0 0.0 0.00 0.00 0.00 90 1014.3
20260831124538 52 0 0.0 0.0 0.00 0.00 0.00 90 1014.4
20260831123043 52 0 0.0 0.0 0.00 0.00 0.00 90 1014.5
20260831121543 52 0 0.0 0.0 0.00 0.00 0.00 90 1014.6
20260831120040 52 0 0.0 0.0 0.00 0.00 0.00 90 1014.6
20260831114540 52 0 0.0 0.0 0.00 0.00 0.00 90 1014.7
20260831113047 52 0 0.0 0.0 0.00 0.00 0.00 90 1014.7
20260831111603 52 0 0.0 2.0 0.00 0.00 0.00 90 1014.9
20260831110100 52 0 0.0 0.0 0.00 0.00 0.00 89 1015.0
20260831104541 52 0 0.0 0.0 0.00 0.00 0.00 89 1015.1
20260831103038 52 0 0.0 0.0 0.00 0.00 0.00 88 1015.2
20260831101541 52 0 0.0 0.0 0.00 0.00 0.00 88 1015.3
20260831100041 53 0 0.0 0.0 0.00 0.00 0.00 87 1015.4
20260831094541 53 0 0.0 0.0 0.00 0.00 0.00 87 1015.4
20260831093039 53 0 0.0 0.0 0.00 0.00 0.00 87 1015.7
20260831091548 53 0 0.0 1.0 0.00 0.00 0.00 87 1015.8
20260831090041 53 0 0.0 0.0 0.00 0.00 0.00 87 1015.8
20260831084549 53 0 0.0 0.0 0.00 0.00 0.00 86 1016.0
20260831083047 53 0 0.0 0.0 0.00 0.00 0.00 85 1016.1
20260831081600 53 0 0.0 0.0 0.00 0.00 0.00 85 1016.1
20260831080041 53 0 0.0 0.0 0.00 0.00 0.00 85 1016.3
20260831074544 53 0 0.0 0.0 0.00 0.00 0.00 84 1016.4
20260831073116 54 0 0.0 0.0 0.00 0.00 0.00 82 1016.5
20260831071543 54 0 0.0 0.0 0.00 0.00 0.00 82 1016.6
20260831070041 55 0 0.0 0.0 0.00 0.00 0.00 81 1016.7
20260831064541 55 0 0.0 0.0 0.00 0.00 0.00 80 1016.8
20260831063043 56 0 0.0 0.0 0.00 0.00 0.00 79 1017.0
20260831061545 56 0 0.0 0.0 0.00 0.00 0.00 78 1017.3
20260831060053 57 0 0.0 0.0 0.00 0.00 0.00 77 1017.3
20260831054541 57 0 0.0 0.0 0.00 0.00 0.00 76 1017.5
20260831053039 58 0 0.0 0.0 0.00 0.00 0.00 75 1017.7
20260831051543 59 0 0.0 1.0 0.00 0.00 0.00 73 1017.8
20260831050048 59 360 0.0 6.0 0.00 0.00 0.00 72 1017.9
20260831044539 59 0 0.0 4.0 0.00 0.00 0.00 71 1017.9
20260831043049 60 0 0.0 1.0 0.00 0.00 0.00 70 1017.9
20260831041548 60 0 0.0 2.0 0.00 0.00 0.00 69 1018.0
20260831040051 61 0 0.0 0.0 0.00 0.00 0.00 67 1017.9
20260831034540 61 0 0.0 1.0 0.00 0.00 0.00 66 1017.9
20260831033037 62 0 0.0 2.0 0.00 0.00 0.00 64 1017.8
20260831031536 63 0 0.0 3.0 0.00 0.00 0.00 63 1017.7
20260831030049 64 0 0.0 1.0 0.00 0.00 0.00 61 1017.7
20260831024540 66 0 0.0 1.0 0.00 0.00 0.00 59 1017.7
20260831023040 67 0 0.0 2.0 0.00 0.00 0.00 56 1017.8
20260831021542 69 0 0.0 1.0 0.00 0.00 0.00 54 1017.9
20260831020039 70 0 0.0 2.0 0.00 0.00 0.00 51 1018.0
20260831014546 70 197 0.0 3.0 0.00 0.00 0.00 49 1018.1
20260831013044 70 0 0.0 2.0 0.00 0.00 0.00 49 1018.2
20260831011541 71 254 0.0 3.0 0.00 0.00 0.00 48 1018.3
20260831010040 71 0 1.0 5.0 0.00 0.00 0.00 47 1018.4
20260831004542 72 5 0.0 4.0 0.00 0.00 0.00 47 1018.5
20260831003039 71 0 2.0 6.0 0.00 0.00 0.00 47 1018.6
20260831001538 72 311 1.0 8.0 0.00 0.00 0.00 47 1018.7
20260831000055 72 0 1.0 7.0 0.00 0.00 0.00 49 1018.8
20260830234549 71 280 2.0 4.0 0.00 0.00 0.00 49 1018.9
20260830233055 72 271 0.0 6.0 0.00 0.00 0.00 50 1018.9